RH
79 77 80 86 83 80 78 85 88 80 79 78 81 82 80 75 83 90 93 91 86 86 83 85 94 93 96 89 94 91 93 86 87 81 85 95 93 94 96 84 80 92 93
88 77 75 83 81 83 79 84 82 74 77 91 75 67 65 82 88 93 89 90 88 88 86 95 95 97 96 85 92 84 93 75 84 87 91 85 85 95 97 82 77 91 93
82 72 68 75 79 80 80 85 88 84 86 99 79 63 57 70 84 87 88 92 95 91 90 96 93 94 95 88 85 63 67 78 82 78 82 78 90 100 96 90 93 94 92
78 76 69 71 81 81 79 81 84 85 89 91 88 76 67 76 87 82 83 88 98 94 94 87 84 89 78 73 84 86 65 58 74 64 68 86 93 92 94 97 94 93 93
68 70 74 82 85 83 80 81 82 82 84 88 91 83 74 71 88 90 86 89 92 92 95 87 72 77 80 73 89 92 87 78 65 78 87 91 93 91 94 88 89 77 71
62 70 89 87 87 87 82 83 83 83 83 84 88 91 86 70 88 89 86 78 80 88 92 85 62 69 71 80 91 90 86 84 83 86 83 81 75 81 76 50 60 88 96
54 65 72 90 88 88 86 82 83 82 85 86 86 89 88 84 68 81 92 84 78 82 90 82 70 56 62 76 93 83 78 79 85 84 76 70 64 67 70 61 81 96 96
27 36 54 69 90 89 87 86 83 82 82 83 84 87 89 89 86 77 68 86 85 81 87 86 78 51 54 64 90 80 73 70 78 87 80 73 66 85 89 85 81 84 80
16 16 19 30 56 78 88 90 88 83 82 82 83 85 86 87 88 87 79 69 88 86 83 85 83 69 50 54 84 79 74 67 72 77 74 69 64 86 91 90 76 79 80
16 17 17 18 19 25 41 72 92 93 83 84 84 85 86 88 89 88 86 78 71 90 87 85 75 68 56 51 58 78 74 70 65 69 71 67 66 84 90 94 79 80 83
22 26 26 24 22 20 20 24 50 79 93 90 83 81 84 87 86 88 88 84 76 75 91 89 84 70 56 45 51 57 64 68 65 62 65 65 67 78 89 95 86 88 90
29 28 31 29 29 27 25 24 22 24 40 66 90 89 86 82 85 85 86 86 82 71 87 92 91 85 73 58 45 49 52 50 54 59 58 61 66 72 91 95 95 85 88
51 44 41 39 37 35 31 29 28 27 24 24 41 82 94 90 88 85 88 88 84 81 86 92 95 95 88 77 54 52 56 53 47 42 54 59 64 67 93 95 97 89 90
52 50 48 46 46 44 43 40 37 35 32 30 29 27 47 100 96 93 90 91 89 86 85 86 92 95 92 89 76 52 57 59 54 44 40 58 62 62 84 93 96 96 95
55 51 47 46 44 44 45 46 45 44 42 39 36 35 33 34 79 99 96 92 90 89 89 90 91 94 95 94 90 76 54 58 57 53 42 49 61 61 64 88 92 96 96
55 52 50 48 48 48 46 44 44 44 45 46 44 41 40 37 36 45 94 100 98 90 89 89 96 100 100 96 93 90 76 56 57 55 52 45 54 57 61 62 86 92 94
58 57 56 57 58 59 59 58 56 50 48 46 47 46 45 44 40 36 46 73 98 100 98 98 98 100 100 100 98 93 90 78 56 54 53 51 47 49 63 62 64 73 85
59 63 65 68 67 68 70 69 67 63 63 55 48 50 52 49 47 43 39 51 72 99 100 100 99 98 100 99 100 100 95 91 81 57 52 54 60 52 57 62 62 64 66
62 68 72 74 77 82 82 79 77 74 72 68 63 53 52 54 50 46 44 42 46 70 82 98 100 100 100 99 100 100 100 99 92 82 65 54 50 63 60 58 61 61 61
66 72 76 80 84 89 90 88 82 80 79 77 73 70 64 59 52 49 46 43 41 64 86 65 90 100 100 100 100 100 100 99 100 95 85 74 68 48 59 62 61 61 59
69 76 81 84 86 92 96 97 96 97 87 73 69 64 66 58 52 49 48 44 43 52 85 85 84 95 100 100 100 100 100 99 99 96 92 84 77 67 48 62 63 60 59
75 81 86 89 90 96 98 99 99 98 86 76 76 75 67 60 54 51 48 46 48 54 73 75 88 95 97 100 96 99 96 90 98 93 90 87 83 75 67 54 63 62 60
77 85 91 94 93 97 100 97 97 94 84 86 89 77 66 63 59 62 61 65 68 73 83 85 86 94 97 86 97 97 97 92 85 82 90 89 86 81 77 67 60 63 63
78 84 91 94 97 98 97 99 100 100 97 95 91 76 66 63 63 64 69 69 72 80 81 81 74 76 83 92 88 98 99 98 95 91 96 94 89 87 88 86 74 76 66
77 84 89 92 94 91 99 98 99 100 100 98 96 85 72 69 77 82 82 85 91 92 87 81 77 78 84 98 95 89 85 90 98 98 93 92 98 96 92 88 98 96 92
73 79 85 90 92 91 99 98 99 99 99 99 99 99 99 99 100 99 99 100 98 92 88 85 82 79 79 79 98 92 96 89 81 90 97 88 83 83 91 96 99 97 98
Wind_Speed
4 2 1 7 6 7 8 9 9 8 7 6 6 6 6 6 6 6 6 6 6 8 7 7 5 5 5 8 10 10 11 11 10 9 9 12 11 12 12 12 12 12 11
9 2 2 6 6 6 7 8 8 8 7 6 6 6 6 6 6 6 7 7 7 8 8 7 8 8 6 8 10 9 10 12 11 9 11 10 10 10 10 10 10 11 10
9 4 4 5 6 7 7 8 7 7 7 8 6 6 6 6 6 5 7 8 8 8 7 6 8 8 8 9 8 8 10 12 12 10 9 7 9 10 9 6 8 9 9
10 5 1 7 6 7 7 8 8 8 7 6 5 6 6 6 6 5 6 7 7 7 9 8 7 7 6 8 9 9 9 10 9 8 8 9 8 8 5 6 7 8 8
7 6 4 1 4 5 6 8 9 8 8 7 7 6 6 6 7 5 6 7 7 6 10 6 6 7 7 8 10 9 8 9 10 10 9 9 8 6 5 6 6 6 7
11 15 7 3 1 4 6 8 9 10 9 9 9 8 6 6 8 7 7 7 8 6 10 6 5 7 8 11 11 10 9 9 10 9 7 6 5 5 5 4 5 6 6
11 11 12 5 1 2 6 8 9 10 11 11 11 10 9 7 7 10 10 10 9 9 10 7 6 8 9 12 12 10 9 9 12 10 8 6 5 5 5 5 6 6 6
11 10 8 9 4 2 4 6 9 10 11 12 12 13 12 11 9 9 11 12 12 12 12 11 9 8 10 14 14 11 9 8 10 12 10 7 6 7 7 6 6 6 6
10 10 11 10 8 6 5 6 9 10 11 12 12 13 13 13 12 12 11 13 14 14 14 13 12 10 11 13 16 14 12 9 10 12 11 9 8 9 9 8 7 6 6
12 12 13 12 11 10 10 7 6 9 11 13 13 14 14 15 14 15 14 14 16 16 16 15 14 13 13 15 16 17 16 14 13 14 13 11 10 10 11 10 8 8 7
12 13 13 12 11 11 11 11 10 9 12 14 15 16 16 17 18 18 18 16 17 19 19 19 17 16 15 16 17 18 18 19 17 16 16 14 13 12 13 12 11 10 10
15 15 16 15 14 13 12 12 12 14 13 12 16 18 19 21 22 21 21 19 18 19 20 21 21 19 18 19 20 20 21 21 22 21 19 17 16 15 15 15 14 13 12
12 13 14 15 14 14 14 14 14 14 15 17 16 15 20 23 24 24 24 23 22 21 23 22 24 24 23 22 23 23 23 24 24 24 23 20 20 19 17 17 17 16 15
14 15 15 16 17 16 16 15 17 18 17 16 17 18 18 20 24 26 27 27 25 25 26 26 27 28 28 26 25 26 25 25 26 25 26 24 22 22 20 19 19 18 17
18 19 20 21 21 21 22 22 21 21 20 20 18 17 18 19 21 24 29 30 30 29 29 29 30 31 31 31 30 29 29 29 28 27 27 28 26 24 24 22 21 20 19
21 24 25 26 25 25 26 26 26 26 25 23 22 22 20 20 22 23 24 25 32 33 33 33 31 29 32 34 35 34 33 33 31 31 31 30 31 29 27 28 25 23 21
19 22 24 26 27 27 27 27 27 27 27 27 26 25 24 23 23 23 25 25 25 30 32 34 33 33 30 30 35 38 37 37 35 35 34 34 34 34 31 29 30 28 27
20 24 26 26 27 26 26 26 25 25 25 26 28 27 25 24 24 24 24 24 24 27 27 27 28 28 30 29 30 33 40 41 40 39 38 38 36 36 36 34 33 32 30
22 25 27 27 26 25 25 24 24 23 23 23 23 24 25 24 24 25 25 25 24 25 25 26 30 29 27 30 29 30 34 38 42 42 42 41 41 40 38 38 35 34 34
22 23 25 25 25 25 24 23 22 21 21 22 21 20 20 21 21 23 25 25 24 26 24 26 27 29 31 29 27 29 30 36 40 39 42 43 44 45 43 42 39 37 36
23 24 24 24 26 27 27 24 20 20 25 23 18 15 18 16 18 21 24 23 22 24 25 25 26 24 26 29 21 22 27 33 33 35 36 41 40 43 46 45 43 40 39
21 22 23 21 23 24 22 22 20 21 20 20 20 19 15 15 17 19 20 21 21 22 24 25 23 22 26 24 18 13 7 13 29 36 37 38 41 44 43 46 46 44 42
18 19 21 20 20 22 21 20 19 18 18 17 21 19 16 14 14 15 15 17 18 21 24 23 20 20 19 24 23 12 4 7 2 18 34 37 35 32 32 38 44 45 44
18 17 17 19 18 18 18 18 17 15 15 20 20 17 15 13 13 13 13 15 16 18 19 21 19 19 18 19 19 26 28 21 5 5 6 19 27 29 32 33 37 40 40
15 16 15 16 16 17 18 17 15 16 16 14 15 14 12 11 10 9 10 11 12 13 14 16 17 19 21 22 20 20 20 22 24 9 11 7 18 27 32 35 40 44 46
14 16 15 16 16 15 13 15 15 13 14 15 17 16 17 14 13 13 14 13 14 14 15 17 18 21 23 26 24 22 21 13 12 10 9 12 14 22 31 34 38 40 36
Wind_Direction
3 307 236 208 187 175 162 157 154 147 141 134 128 129 134 139 140 140 141 139 134 127 129 141 134 124 110 121 122 124 124 128 125 122 123 114 111 109 104 97 95 93 91
341 319 270 215 208 193 178 165 162 160 150 137 139 138 137 133 136 140 143 143 140 138 132 140 144 136 125 123 127 128 137 142 129 123 126 115 112 114 108 96 95 96 95
359 347 266 232 219 208 199 186 182 173 161 151 157 153 153 150 147 151 155 155 154 151 153 130 126 135 134 134 136 126 132 142 140 134 131 128 131 127 108 91 97 100 103
12 22 210 239 210 213 210 212 200 191 175 175 178 172 169 163 159 156 166 170 176 180 163 163 164 152 148 148 142 135 132 146 150 144 137 130 134 127 107 108 108 109 110
33 32 13 169 210 225 217 220 217 211 200 196 200 185 195 186 176 182 178 182 190 202 184 185 185 187 179 166 158 158 152 147 148 146 141 138 140 140 144 134 129 125 124
38 38 44 59 180 254 238 233 232 225 219 217 213 208 206 215 201 200 201 203 212 218 194 217 215 197 192 178 174 170 164 164 165 166 168 173 189 178 172 162 149 137 135
35 31 31 35 1 262 271 252 248 242 238 231 226 222 221 225 225 218 221 219 218 215 222 228 226 209 203 189 184 186 189 197 201 192 193 196 206 199 189 176 163 159 153
31 27 18 26 36 343 269 261 265 261 257 250 244 233 231 235 240 240 236 229 228 228 232 235 234 221 209 197 195 200 202 204 204 212 213 222 222 205 197 194 185 178 171
18 11 11 11 9 4 325 281 262 262 261 259 255 247 243 245 246 245 248 242 236 237 234 236 238 235 221 211 205 211 213 214 215 215 224 230 224 213 211 209 205 199 193
9 7 4 359 351 347 348 339 294 263 262 264 259 257 250 250 253 251 253 250 244 242 240 237 239 240 232 223 219 221 224 226 226 227 230 232 231 223 223 220 219 215 210
19 19 7 357 350 341 334 326 314 297 272 263 257 256 254 251 252 251 252 256 252 243 244 244 245 245 240 232 227 227 232 234 234 233 232 232 232 228 227 227 228 223 219
4 2 359 354 348 338 328 322 315 308 301 292 269 257 254 256 254 252 255 256 254 246 245 247 246 248 248 243 235 232 233 238 239 239 239 237 234 233 230 233 233 232 229
8 358 356 350 347 339 328 319 312 308 304 298 292 284 263 255 256 257 254 251 251 247 246 244 243 242 244 246 245 243 242 240 242 240 240 240 238 237 231 235 237 237 236
357 349 344 340 335 328 322 317 312 308 303 300 300 292 289 271 261 256 256 256 255 251 249 245 243 244 244 246 248 248 247 244 243 243 241 240 240 239 234 236 241 243 240
349 341 336 330 325 318 314 310 306 303 301 298 295 293 295 287 280 272 261 258 257 256 254 252 248 247 247 247 248 248 247 246 246 245 244 240 240 241 241 238 237 240 241
343 339 334 328 322 316 310 305 301 297 295 294 291 288 288 288 286 280 276 266 264 259 257 256 252 246 246 249 249 248 250 248 247 247 246 244 242 243 245 243 239 239 241
346 343 340 334 327 320 314 309 305 299 295 288 283 284 283 281 281 281 276 277 272 269 266 261 256 251 245 246 251 252 251 251 250 248 248 247 245 244 245 246 243 240 238
347 345 338 335 330 327 321 314 309 305 303 296 287 279 278 279 277 276 276 272 273 270 266 258 250 244 244 243 244 249 251 252 252 250 249 248 247 246 245 245 243 244 245
345 342 338 337 335 331 325 320 315 313 310 308 300 287 276 277 277 275 272 275 276 271 272 272 254 247 244 245 246 247 250 250 253 253 251 251 249 248 249 245 245 245 245
347 343 342 342 342 337 332 328 324 321 320 316 302 291 285 276 274 271 271 272 274 270 266 265 267 242 241 243 244 249 250 254 255 253 253 255 255 250 246 246 246 245 246
350 347 347 344 347 341 335 328 325 317 322 320 316 300 290 278 277 273 268 268 270 269 267 268 271 262 237 239 244 247 251 251 252 252 253 252 250 253 248 245 247 247 246
347 349 347 349 347 342 327 329 320 315 318 317 320 319 302 284 283 286 272 268 270 267 263 266 270 265 264 244 225 238 255 245 243 244 245 247 247 249 248 247 246 246 247
349 348 351 352 349 350 340 337 333 333 333 328 340 335 328 316 305 300 287 279 280 273 267 262 264 267 265 267 256 223 222 247 262 237 237 236 237 235 243 250 249 248 248
347 345 347 358 354 352 358 356 337 328 311 316 325 333 338 334 320 311 301 294 292 285 274 270 274 277 274 271 276 264 252 269 255 253 253 234 232 237 247 250 249 254 252
349 351 352 358 360 0 3 1 1 358 356 352 355 356 358 355 357 344 328 314 309 300 287 284 283 279 277 269 261 267 273 275 266 261 273 244 234 243 246 260 252 252 250
353 358 357 354 358 360 6 7 8 4 3 6 6 6 4 4 6 0 352 346 332 322 312 303 293 284 279 277 266 266 260 258 268 257 257 257 252 253 244 243 244 240 241